Location: Çayiçi
(36.4667°N, 30.2333°E)
Time: 02:10:15
(UTC+00:00)

Cosmos 1745 Rocket - Pass Details

Date: 09 February 2023
Orbit: 952 x 998 km, 83.0° (Epoch: 01 April)

Event Time Altitude Azimuth Distance (km) Brightness Sun altitude
Rises 16:33:23 0° 354° (N) 3,671 7.0 -12.6°
Reaches altitude 10° 16:35:55 10° 356° (N) 2,713 6.3 -13.1°
Maximum altitude 16:42:08 80° 83° (E) 978 3.9 -14.3°
Drops below altitude 10° 16:48:15 10° 171° (S) 2,673 6.3 -15.6°
Sets 16:50:43 0° 172° (S) 3,612 7.0 -16.0°
